Flag for U.S.A. Weather past 2 weeks in San Francisco, California, U.S.A.

Now
53 °F

Clear.


Feels Like: 50 °F
Forecast: 51 / 67 °F
Wind: 9 mph from Northwest

Location: San Francisco International Airport

Current Time: Mar 29, 2015 at 2:51:20 AM

Latest Report: Mar 29, 2015 at 1:56 AM


Visibility: 9 mi

Pressure: 30.12 "Hg

Humidity: 93%

Dew point: 51 °F

Location of San FranciscoLocation

Historic Weather in San Francisco — Graph

°F

San Francisco temperature yesterday

Maximum temperature yesterday: 74 °F (at 2:56 PM)
Minimum temperature yesterday: 53 °F (at 5:56 AM)
Average temperature yesterday: 60 °F

Past Weeks' High & Low Weather Summary

 TemperatureHumidityPressure
High80 °F (Mar 14, 6:56 PM)100% (Mar 14, 7:56 AM)30.31 "Hg (Mar 14, 7:56 AM)
Low50 °F (Mar 19, 5:56 AM)25% (Mar 14, 6:56 PM)29.95 "Hg (Mar 14, 5:56 PM)
Average60 °F79%30.12 "Hg
* Reported Mar 14 1:56 AM — Mar 29 1:56 AM, San Francisco, Weather by CustomWeather, © 2015

Note: Actual official high and low records may vary slightly from our data, if they occured in-between our weather recording intervals... More about our weather records

Advertising

San Francisco weather history for previous 24 hours

 ConditionsComfort  
Time TempWeatherWind HumidityBarometerVisibility
1:56 AM
Sun, Mar 29
53 °FClear.9 mph93%30.12 "Hg9 mi
12:56 AM54 °FClear.5 mph90%30.11 "Hg9 mi
11:56 PM
Sat, Mar 28
55 °FClear.8 mph87%30.12 "Hg9 mi
10:56 PM55 °FClear.17 mph90%30.11 "Hg9 mi
9:56 PM55 °FPassing clouds.21 mph90%30.11 "Hg10 mi
8:56 PM57 °FPassing clouds.25 mph83%30.10 "Hg10 mi
7:56 PM58 °FPassing clouds.22 mph72%30.08 "Hg10 mi
6:56 PM61 °FPassing clouds.22 mph62%30.08 "Hg10 mi
5:56 PM64 °FScattered clouds.24 mph56%30.09 "Hg10 mi
4:56 PM67 °FScattered clouds.20 mph49%30.09 "Hg10 mi
3:56 PM70 °FScattered clouds.20 mph44%30.09 "Hg10 mi
2:56 PM74 °FScattered clouds.14 mph40%30.11 "Hg10 mi
1:56 PM73 °FScattered clouds.13 mph46%30.14 "Hg10 mi
12:56 PM70 °FScattered clouds.3 mph41%30.16 "Hg10 mi
11:56 AM66 °FScattered clouds.No wind59%30.19 "Hg10 mi
10:56 AM62 °FScattered clouds.No wind75%30.20 "Hg10 mi
9:56 AM61 °FScattered clouds.No wind78%30.19 "Hg10 mi
8:56 AM58 °FScattered clouds.No wind84%30.18 "Hg10 mi
7:56 AM54 °FPassing clouds.3 mph97%30.17 "Hg10 mi
6:56 AM53 °FPassing clouds.3 mph96%30.16 "Hg10 mi
5:56 AM53 °FPassing clouds.5 mph96%30.15 "Hg10 mi
4:56 AM54 °FPassing clouds.9 mph97%30.14 "Hg10 mi
3:56 AM55 °FPassing clouds.20 mph100%30.15 "Hg10 mi
2:56 AM55 °FPassing clouds.13 mph100%30.16 "Hg10 mi
Weather by CustomWeather, © 2015

See weather overviewHow to use our weather pages